GFSSE_prec_precacc12_273.txt.gz
Total_Precipitation_Accumulation
0.00 0.00 0.01 0.04 0.05 0.05 0.02 0.08 0.11 0.11 0.07 0.09 0.11 0.06 0.06 0.17 0.23 0.24 0.21 0.20 0.28 1.19 1.28 0.98 0.49 0.37 0.56 0.74 0.70 0.47 0.34 0.16 0.08 0.01 0.01 0.01 0.01 0.00 0.04 0.07 0.03 0.01 0.00
0.00 0.00 0.02 0.02 0.04 0.01 0.01 0.05 0.13 0.07 0.05 0.03 0.05 0.05 0.04 0.07 0.16 0.25 0.22 0.14 0.26 0.56 0.78 0.58 0.54 0.65 0.74 0.57 0.29 0.19 0.07 0.02 0.01 0.00 0.01 0.00 0.00 0.00 0.02 0.06 0.05 0.00 0.00
0.00 0.00 0.00 0.01 0.00 0.00 0.02 0.10 0.09 0.04 0.05 0.04 0.04 0.11 0.11 0.07 0.15 0.20 0.17 0.18 0.22 0.32 0.31 0.36 0.52 0.71 0.29 0.08 0.06 0.04 0.03 0.07 0.04 0.04 0.05 0.00 0.00 0.01 0.01 0.01 0.00 0.00 0.00
0.00 0.00 0.00 0.00 0.00 0.00 0.01 0.05 0.05 0.03 0.01 0.02 0.05 0.08 0.08 0.07 0.12 0.19 0.16 0.19 0.22 0.20 0.11 0.12 0.18 0.12 0.10 0.12 0.10 0.07 0.08 0.09 0.09 0.08 0.01 0.00 0.00 0.04 0.03 0.00 0.00 0.00 0.01
0.00 0.00 0.00 0.00 0.00 0.04 0.10 0.09 0.07 0.03 0.02 0.02 0.03 0.04 0.08 0.08 0.04 0.10 0.17 0.17 0.11 0.11 0.04 0.06 0.07 0.05 0.09 0.12 0.12 0.11 0.06 0.09 0.06 0.01 0.00 0.00 0.00 0.00 0.01 0.04 0.07 0.05 0.08
0.00 0.00 0.00 0.04 0.06 0.09 0.04 0.03 0.06 0.05 0.02 0.05 0.04 0.07 0.04 0.07 0.07 0.04 0.07 0.10 0.05 0.05 0.05 0.04 0.04 0.02 0.02 0.02 0.00 0.00 0.00 0.02 0.02 0.00 0.00 0.00 0.00 0.02 0.04 0.06 0.04 0.03 0.02
0.00 0.00 0.00 0.01 0.05 0.11 0.11 0.05 0.02 0.01 0.01 0.03 0.14 0.06 0.03 0.03 0.05 0.05 0.03 0.02 0.02 0.03 0.02 0.02 0.01 0.00 0.00 0.00 0.00 0.00 0.00 0.02 0.00 0.00 0.00 0.00 0.00 0.03 0.02 0.01 0.01 0.01 0.02
0.00 0.00 0.00 0.02 0.01 0.02 0.08 0.03 0.03 0.01 0.01 0.01 0.01 0.01 0.01 0.02 0.02 0.02 0.02 0.01 0.02 0.02 0.01 0.01 0.00 0.00 0.00 0.00 0.00 0.00 0.01 0.04 0.02 0.00 0.00 0.00 0.00 0.00 0.00 0.02 0.01 0.01 0.00
0.00 0.00 0.00 0.00 0.00 0.00 0.01 0.02 0.00 0.00 0.00 0.01 0.00 0.00 0.00 0.00 0.00 0.00 0.00 0.00 0.01 0.02 0.02 0.00 0.01 0.01 0.02 0.00 0.00 0.00 0.00 0.04 0.02 0.00 0.00 0.00 0.00 0.01 0.01 0.00 0.01 0.01 0.01
0.00 0.00 0.00 0.00 0.00 0.00 0.00 0.00 0.00 0.00 0.00 0.00 0.00 0.00 0.00 0.00 0.00 0.00 0.01 0.00 0.00 0.01 0.01 0.00 0.00 0.00 0.01 0.01 0.00 0.00 0.00 0.01 0.01 0.00 0.00 0.00 0.00 0.00 0.00 0.00 0.00 0.00 0.00
0.00 0.00 0.00 0.02 0.00 0.01 0.00 0.00 0.00 0.00 0.00 0.00 0.01 0.03 0.05 0.05 0.03 0.03 0.03 0.00 0.00 0.01 0.00 0.00 0.00 0.00 0.00 0.00 0.00 0.00 0.00 0.04 0.00 0.00 0.00 0.00 0.00 0.00 0.00 0.00 0.00 0.00 0.00
0.00 0.00 0.00 0.00 0.00 0.00 0.00 0.06 0.14 0.08 0.01 0.04 0.02 0.10 0.13 0.07 0.08 0.26 0.01 0.00 0.00 0.00 0.00 0.00 0.00 0.00 0.00 0.00 0.00 0.00 0.00 0.01 0.00 0.00 0.01 0.00 0.00 0.00 0.00 0.00 0.00 0.00 0.00
0.00 0.00 0.00 0.00 0.03 0.04 0.01 0.11 0.13 0.11 0.09 0.04 0.00 0.03 0.07 0.04 0.01 0.02 0.01 0.02 0.01 0.01 0.00 0.01 0.01 0.00 0.00 0.00 0.00 0.00 0.00 0.00 0.00 0.00 0.01 0.02 0.00 0.00 0.00 0.00 0.00 0.00 0.00
0.00 0.00 0.00 0.00 0.00 0.02 0.01 0.17 0.15 0.27 0.15 0.06 0.00 0.00 0.04 0.05 0.02 0.02 0.01 0.02 0.01 0.02 0.04 0.03 0.00 0.00 0.00 0.00 0.00 0.00 0.00 0.00 0.00 0.00 0.00 0.00 0.00 0.00 0.00 0.01 0.04 0.03 0.02
0.00 0.00 0.00 0.00 0.00 0.00 0.00 0.05 0.18 0.44 0.31 0.13 0.07 0.00 0.01 0.03 0.07 0.05 0.02 0.06 0.08 0.10 0.11 0.00 0.00 0.00 0.00 0.00 0.00 0.00 0.02 0.01 0.00 0.00 0.00 0.00 0.00 0.00 0.00 0.01 0.10 0.10 0.16
0.00 0.00 0.00 0.00 0.00 0.00 0.01 0.14 0.20 0.75 0.43 0.41 0.41 0.11 0.14 0.15 0.10 0.23 0.18 0.11 0.13 0.14 0.03 0.06 0.02 0.02 0.01 0.01 0.04 0.01 0.02 0.04 0.02 0.01 0.00 0.00 0.00 0.00 0.03 0.08 0.21 0.08 0.12
0.00 0.00 0.00 0.00 0.00 0.00 0.00 0.12 0.20 0.50 0.68 0.27 0.14 0.07 0.11 0.12 0.28 0.39 0.19 0.20 0.15 0.10 0.16 0.12 0.10 0.14 0.14 0.07 0.11 0.08 0.02 0.00 0.00 0.04 0.04 0.00 0.00 0.00 0.01 0.09 0.28 0.15 0.16
0.00 0.00 0.00 0.00 0.00 0.00 0.00 0.01 0.08 0.15 0.07 0.04 0.00 0.01 0.02 0.01 0.10 0.07 0.05 0.06 0.03 0.03 0.21 0.18 0.15 0.30 0.41 0.21 0.05 0.04 0.01 0.01 0.01 0.01 0.01 0.02 0.03 0.01 0.02 0.08 0.12 0.15 0.14
0.00 0.00 0.00 0.00 0.00 0.00 0.00 0.04 0.06 0.01 0.03 0.02 0.00 0.01 0.01 0.00 0.00 0.01 0.03 0.01 0.02 0.01 0.13 0.15 0.31 0.28 0.20 0.25 0.04 0.03 0.04 0.05 0.04 0.04 0.04 0.07 0.09 0.07 0.08 0.05 0.15 0.19 0.11
0.00 0.00 0.00 0.00 0.00 0.00 0.01 0.07 0.12 0.00 0.00 0.00 0.00 0.01 0.00 0.00 0.01 0.00 0.04 0.04 0.00 0.08 0.11 0.15 0.33 0.16 0.18 0.12 0.03 0.10 0.10 0.03 0.08 0.09 0.11 0.23 0.29 0.16 0.19 0.17 0.57 0.17 0.05
0.02 0.02 0.00 0.00 0.00 0.00 0.00 0.02 0.03 0.01 0.03 0.01 0.04 0.10 0.01 0.02 0.05 0.10 0.12 0.13 0.09 0.20 0.22 0.22 0.22 0.30 0.16 0.07 0.07 0.05 0.02 0.16 0.13 0.11 0.14 0.23 0.32 0.40 0.49 0.57 0.46 0.50 0.15
0.01 0.03 0.01 0.00 0.00 0.00 0.00 0.00 0.01 0.00 0.02 0.03 0.19 0.28 0.14 0.11 0.16 0.40 0.47 0.27 0.18 0.20 0.31 0.22 0.24 0.25 0.15 0.23 0.25 0.25 0.22 0.28 0.55 0.50 0.23 1.18 1.04 1.71 1.32 0.87 0.60 0.61 0.57
0.00 0.00 0.00 0.00 0.00 0.00 0.01 0.03 0.05 0.05 0.08 0.15 0.21 0.60 0.98 0.67 0.21 0.38 0.33 0.32 0.17 0.30 0.30 0.49 0.32 0.47 0.14 0.35 0.37 0.22 0.12 0.34 0.56 0.47 0.69 0.61 0.32 0.29 0.75 2.16 1.52 1.38 1.38
0.00 0.00 0.00 0.00 0.00 0.00 0.00 0.02 0.11 0.09 0.16 0.17 0.16 0.36 0.25 0.21 0.08 0.03 0.05 0.08 0.19 0.33 0.39 0.39 0.48 0.47 0.34 0.40 0.32 0.31 0.17 0.11 0.20 0.17 0.75 0.52 0.10 0.25 0.23 0.10 0.17 0.12 0.34
0.00 0.00 0.00 0.00 0.00 0.02 0.02 0.06 0.07 0.12 0.27 0.19 0.18 0.21 0.23 0.20 0.08 0.04 0.03 0.03 0.02 0.19 0.25 0.29 0.30 0.28 0.22 0.17 0.16 0.28 0.26 0.29 0.35 0.23 0.15 0.10 0.06 0.24 0.48 0.54 0.21 0.33 0.12
0.00 0.00 0.00 0.00 0.02 0.04 0.05 0.03 0.05 0.25 0.14 0.27 0.22 0.23 0.27 0.18 0.09 0.01 0.01 0.02 0.05 0.05 0.05 0.12 0.12 0.11 0.07 0.05 0.08 0.23 0.24 0.37 0.29 0.24 0.11 0.01 0.05 0.01 0.00 0.00 0.02 0.03 0.03

GFSSE_prec_precacc12_276.txt.gz
Total_Precipitation_Accumulation
0.01 0.00 0.01 0.05 0.06 0.05 0.02 0.03 0.07 0.12 0.09 0.06 0.07 0.04 0.04 0.13 0.22 0.31 0.29 0.27 0.80 1.67 1.32 0.85 0.45 0.36 0.56 0.71 0.53 0.33 0.35 0.18 0.06 0.01 0.01 0.00 0.00 0.00 0.04 0.07 0.03 0.01 0.00
0.00 0.00 0.03 0.04 0.04 0.01 0.00 0.03 0.10 0.12 0.06 0.05 0.05 0.04 0.05 0.07 0.13 0.19 0.20 0.22 0.81 0.98 0.77 0.49 0.47 0.59 0.79 0.57 0.26 0.21 0.09 0.02 0.01 0.00 0.00 0.00 0.00 0.00 0.02 0.06 0.05 0.00 0.00
0.00 0.00 0.01 0.02 0.01 0.00 0.02 0.07 0.11 0.09 0.06 0.06 0.09 0.14 0.09 0.08 0.13 0.13 0.12 0.16 0.29 0.38 0.31 0.40 0.62 0.77 0.30 0.09 0.09 0.17 0.02 0.04 0.03 0.03 0.03 0.00 0.00 0.00 0.01 0.01 0.00 0.00 0.00
0.00 0.00 0.00 0.00 0.00 0.00 0.00 0.04 0.07 0.07 0.04 0.06 0.07 0.09 0.08 0.07 0.12 0.13 0.11 0.10 0.13 0.15 0.10 0.18 0.19 0.07 0.06 0.09 0.07 0.05 0.04 0.07 0.06 0.08 0.01 0.00 0.00 0.02 0.02 0.00 0.00 0.00 0.00
0.00 0.00 0.00 0.00 0.00 0.02 0.05 0.08 0.07 0.04 0.04 0.05 0.03 0.04 0.05 0.06 0.04 0.10 0.13 0.08 0.06 0.08 0.05 0.08 0.07 0.05 0.09 0.09 0.10 0.10 0.05 0.09 0.06 0.01 0.00 0.00 0.00 0.00 0.01 0.04 0.06 0.05 0.06
0.00 0.00 0.00 0.01 0.02 0.02 0.01 0.03 0.07 0.06 0.03 0.06 0.05 0.07 0.05 0.04 0.03 0.04 0.05 0.07 0.03 0.05 0.05 0.04 0.03 0.02 0.01 0.01 0.00 0.02 0.00 0.02 0.02 0.00 0.00 0.00 0.00 0.00 0.03 0.06 0.04 0.03 0.02
0.00 0.00 0.00 0.00 0.03 0.08 0.10 0.04 0.02 0.02 0.02 0.03 0.15 0.08 0.04 0.04 0.03 0.03 0.02 0.02 0.01 0.03 0.02 0.02 0.01 0.00 0.00 0.00 0.00 0.00 0.00 0.02 0.00 0.00 0.00 0.00 0.00 0.01 0.01 0.01 0.01 0.01 0.01
0.00 0.00 0.00 0.00 0.01 0.02 0.08 0.03 0.03 0.01 0.02 0.01 0.01 0.01 0.01 0.02 0.03 0.01 0.02 0.01 0.02 0.02 0.01 0.01 0.00 0.00 0.00 0.00 0.00 0.00 0.01 0.05 0.02 0.00 0.00 0.00 0.00 0.00 0.00 0.02 0.01 0.00 0.00
0.00 0.00 0.00 0.00 0.00 0.00 0.01 0.02 0.00 0.00 0.00 0.01 0.00 0.00 0.00 0.00 0.00 0.00 0.00 0.00 0.01 0.02 0.02 0.00 0.00 0.00 0.00 0.00 0.00 0.00 0.03 0.04 0.02 0.00 0.00 0.00 0.00 0.00 0.00 0.00 0.01 0.00 0.00
0.00 0.00 0.00 0.00 0.00 0.00 0.00 0.00 0.00 0.00 0.00 0.00 0.00 0.00 0.00 0.00 0.00 0.00 0.01 0.00 0.00 0.00 0.01 0.00 0.00 0.00 0.00 0.00 0.00 0.00 0.01 0.00 0.01 0.00 0.00 0.00 0.00 0.00 0.00 0.00 0.00 0.00 0.00
0.00 0.00 0.00 0.02 0.00 0.01 0.00 0.00 0.00 0.00 0.00 0.00 0.01 0.03 0.06 0.05 0.02 0.03 0.03 0.00 0.00 0.00 0.00 0.00 0.00 0.00 0.00 0.00 0.00 0.00 0.00 0.04 0.01 0.00 0.00 0.00 0.00 0.00 0.00 0.00 0.00 0.00 0.00
0.00 0.00 0.00 0.00 0.00 0.00 0.00 0.02 0.11 0.03 0.01 0.05 0.04 0.12 0.13 0.10 0.09 0.26 0.01 0.00 0.00 0.00 0.00 0.00 0.00 0.00 0.00 0.00 0.00 0.00 0.01 0.02 0.00 0.01 0.01 0.02 0.01 0.00 0.00 0.00 0.00 0.00 0.00
0.00 0.00 0.00 0.00 0.03 0.04 0.02 0.08 0.02 0.01 0.02 0.02 0.01 0.03 0.07 0.04 0.01 0.03 0.03 0.03 0.02 0.01 0.01 0.02 0.00 0.00 0.00 0.00 0.00 0.00 0.01 0.00 0.00 0.00 0.02 0.04 0.05 0.00 0.00 0.00 0.00 0.00 0.00
0.00 0.00 0.00 0.00 0.00 0.03 0.03 0.19 0.11 0.08 0.01 0.00 0.00 0.00 0.02 0.02 0.01 0.02 0.06 0.08 0.04 0.05 0.04 0.05 0.02 0.00 0.00 0.01 0.00 0.00 0.00 0.00 0.00 0.00 0.00 0.01 0.04 0.02 0.00 0.01 0.02 0.00 0.00
0.00 0.00 0.00 0.00 0.01 0.01 0.01 0.05 0.19 0.35 0.14 0.02 0.02 0.00 0.02 0.01 0.05 0.04 0.02 0.04 0.05 0.11 0.13 0.00 0.00 0.01 0.00 0.00 0.00 0.00 0.02 0.01 0.00 0.00 0.00 0.00 0.03 0.03 0.04 0.01 0.01 0.02 0.07
0.00 0.00 0.00 0.00 0.00 0.00 0.04 0.15 0.20 0.73 0.17 0.12 0.11 0.05 0.01 0.04 0.09 0.20 0.15 0.11 0.10 0.15 0.05 0.09 0.05 0.02 0.02 0.00 0.00 0.00 0.01 0.03 0.02 0.02 0.00 0.00 0.01 0.08 0.14 0.15 0.15 0.04 0.06
0.00 0.00 0.00 0.00 0.00 0.00 0.04 0.13 0.21 0.50 0.51 0.04 0.01 0.05 0.07 0.08 0.18 0.30 0.19 0.19 0.11 0.10 0.14 0.17 0.11 0.08 0.06 0.02 0.03 0.03 0.01 0.01 0.00 0.11 0.14 0.05 0.01 0.06 0.14 0.18 0.26 0.18 0.15
0.00 0.00 0.00 0.00 0.00 0.00 0.01 0.04 0.09 0.15 0.06 0.02 0.01 0.01 0.02 0.04 0.16 0.07 0.05 0.07 0.06 0.09 0.09 0.09 0.09 0.18 0.30 0.12 0.00 0.01 0.04 0.09 0.05 0.11 0.22 0.15 0.14 0.05 0.16 0.17 0.18 0.27 0.30
0.00 0.00 0.00 0.00 0.00 0.00 0.01 0.08 0.09 0.03 0.12 0.08 0.00 0.01 0.01 0.01 0.01 0.01 0.03 0.02 0.02 0.02 0.04 0.06 0.16 0.19 0.10 0.20 0.03 0.04 0.06 0.12 0.21 0.20 0.17 0.17 0.22 0.13 0.11 0.17 0.36 0.40 0.26
0.00 0.00 0.00 0.00 0.00 0.00 0.02 0.07 0.13 0.00 0.04 0.02 0.00 0.02 0.01 0.00 0.01 0.00 0.04 0.04 0.01 0.04 0.06 0.19 0.30 0.20 0.18 0.09 0.08 0.12 0.15 0.15 0.22 0.34 0.29 0.43 0.55 0.24 0.22 0.23 0.80 0.46 0.44
0.05 0.06 0.01 0.00 0.00 0.00 0.01 0.03 0.04 0.01 0.07 0.10 0.08 0.10 0.04 0.02 0.06 0.17 0.15 0.19 0.09 0.15 0.14 0.18 0.29 0.26 0.25 0.23 0.27 0.09 0.04 0.20 0.19 0.21 0.21 0.35 0.44 0.43 0.50 0.59 0.53 0.67 0.41
0.02 0.06 0.03 0.00 0.01 0.00 0.01 0.03 0.04 0.05 0.09 0.07 0.26 0.27 0.14 0.12 0.24 0.50 0.60 0.27 0.22 0.31 0.40 0.16 0.20 0.21 0.10 0.21 0.34 0.25 0.22 0.29 0.61 0.50 0.23 1.18 1.04 1.73 1.33 0.89 0.61 0.80 0.77
0.00 0.01 0.01 0.00 0.02 0.00 0.02 0.04 0.06 0.12 0.13 0.16 0.16 0.58 0.95 0.67 0.22 0.40 0.39 0.35 0.19 0.38 0.30 0.29 0.27 0.48 0.15 0.19 0.18 0.13 0.08 0.23 0.49 0.47 0.69 0.61 0.32 0.31 0.77 2.22 1.53 1.38 1.47
0.00 0.00 0.00 0.00 0.02 0.01 0.01 0.02 0.04 0.04 0.08 0.07 0.11 0.37 0.25 0.22 0.07 0.04 0.10 0.12 0.21 0.33 0.35 0.31 0.53 0.44 0.31 0.25 0.31 0.17 0.13 0.10 0.14 0.16 0.73 0.52 0.10 0.25 0.23 0.10 0.17 0.12 0.37
0.00 0.00 0.00 0.00 0.04 0.03 0.02 0.06 0.06 0.06 0.13 0.12 0.17 0.22 0.23 0.20 0.10 0.06 0.02 0.01 0.01 0.16 0.23 0.29 0.42 0.33 0.32 0.17 0.12 0.21 0.21 0.24 0.29 0.20 0.12 0.01 0.05 0.25 0.48 0.54 0.22 0.35 0.18
0.00 0.00 0.00 0.00 0.02 0.04 0.06 0.04 0.06 0.20 0.08 0.20 0.21 0.24 0.27 0.18 0.09 0.00 0.00 0.00 0.00 0.03 0.05 0.12 0.13 0.11 0.07 0.06 0.05 0.11 0.08 0.16 0.19 0.22 0.09 0.00 0.01 0.00 0.00 0.01 0.02 0.06 0.10

GFSSE_prec_precacc12_279.txt.gz
Total_Precipitation_Accumulation
0.02 0.01 0.06 0.08 0.08 0.06 0.03 0.03 0.08 0.12 0.09 0.06 0.06 0.03 0.03 0.15 0.35 0.51 0.45 0.36 0.79 1.67 1.23 0.77 0.37 0.25 0.31 0.45 0.43 0.29 0.31 0.16 0.05 0.01 0.00 0.00 0.01 0.01 0.04 0.07 0.04 0.04 0.02
0.00 0.01 0.06 0.05 0.04 0.01 0.00 0.02 0.08 0.13 0.10 0.06 0.05 0.04 0.05 0.12 0.22 0.35 0.31 0.36 0.83 1.04 0.68 0.43 0.33 0.38 0.58 0.52 0.21 0.20 0.08 0.02 0.00 0.00 0.00 0.00 0.00 0.00 0.02 0.02 0.03 0.00 0.00
0.00 0.00 0.02 0.04 0.01 0.00 0.00 0.03 0.08 0.13 0.10 0.08 0.10 0.15 0.10 0.13 0.17 0.22 0.19 0.24 0.51 0.35 0.34 0.41 0.47 0.61 0.35 0.10 0.07 0.18 0.02 0.13 0.06 0.00 0.00 0.00 0.00 0.00 0.00 0.00 0.00 0.00 0.00
0.00 0.00 0.00 0.01 0.01 0.00 0.00 0.03 0.06 0.13 0.06 0.07 0.07 0.10 0.07 0.07 0.12 0.19 0.12 0.13 0.26 0.16 0.14 0.32 0.30 0.13 0.06 0.05 0.05 0.03 0.05 0.10 0.04 0.05 0.01 0.00 0.00 0.00 0.00 0.00 0.00 0.00 0.00
0.00 0.00 0.00 0.00 0.00 0.00 0.01 0.04 0.05 0.07 0.04 0.07 0.03 0.04 0.06 0.06 0.03 0.08 0.08 0.09 0.07 0.09 0.11 0.15 0.07 0.04 0.10 0.07 0.10 0.12 0.05 0.07 0.05 0.01 0.00 0.00 0.00 0.00 0.00 0.00 0.02 0.01 0.01
0.00 0.00 0.00 0.00 0.00 0.00 0.00 0.03 0.07 0.03 0.02 0.05 0.07 0.07 0.04 0.05 0.03 0.02 0.04 0.05 0.04 0.07 0.07 0.04 0.02 0.02 0.02 0.03 0.04 0.04 0.00 0.02 0.02 0.00 0.00 0.00 0.00 0.00 0.00 0.01 0.01 0.01 0.00
0.00 0.00 0.00 0.00 0.00 0.00 0.02 0.01 0.02 0.02 0.01 0.03 0.16 0.08 0.03 0.04 0.04 0.04 0.03 0.02 0.02 0.04 0.02 0.02 0.00 0.00 0.00 0.00 0.00 0.00 0.00 0.02 0.00 0.00 0.00 0.00 0.00 0.00 0.00 0.00 0.00 0.01 0.00
0.00 0.00 0.00 0.00 0.00 0.01 0.01 0.01 0.01 0.02 0.02 0.01 0.01 0.01 0.01 0.02 0.02 0.03 0.03 0.01 0.01 0.01 0.00 0.01 0.00 0.00 0.00 0.00 0.00 0.00 0.01 0.05 0.02 0.00 0.00 0.00 0.00 0.00 0.00 0.00 0.00 0.00 0.00
0.00 0.00 0.00 0.00 0.00 0.00 0.00 0.01 0.00 0.00 0.01 0.01 0.01 0.00 0.01 0.02 0.00 0.00 0.00 0.00 0.00 0.00 0.00 0.00 0.00 0.00 0.00 0.00 0.00 0.01 0.04 0.04 0.02 0.00 0.00 0.00 0.00 0.00 0.00 0.00 0.00 0.00 0.00
0.00 0.00 0.00 0.00 0.00 0.00 0.00 0.00 0.00 0.00 0.00 0.00 0.00 0.00 0.00 0.00 0.00 0.00 0.01 0.00 0.00 0.00 0.00 0.00 0.00 0.00 0.00 0.00 0.00 0.00 0.01 0.00 0.01 0.00 0.00 0.00 0.00 0.00 0.00 0.00 0.00 0.00 0.00
0.00 0.00 0.00 0.02 0.00 0.01 0.00 0.00 0.00 0.00 0.00 0.00 0.01 0.03 0.06 0.04 0.03 0.03 0.01 0.00 0.00 0.00 0.00 0.00 0.00 0.00 0.00 0.00 0.01 0.01 0.01 0.04 0.01 0.00 0.00 0.00 0.00 0.00 0.00 0.00 0.00 0.00 0.00
0.00 0.00 0.00 0.00 0.00 0.00 0.00 0.02 0.01 0.00 0.01 0.04 0.03 0.12 0.13 0.10 0.09 0.26 0.01 0.00 0.00 0.00 0.00 0.00 0.00 0.00 0.00 0.00 0.00 0.00 0.03 0.03 0.04 0.02 0.01 0.03 0.04 0.00 0.00 0.00 0.00 0.00 0.00
0.00 0.00 0.00 0.00 0.03 0.04 0.02 0.08 0.02 0.00 0.01 0.02 0.01 0.05 0.08 0.04 0.01 0.03 0.03 0.03 0.02 0.01 0.01 0.02 0.00 0.00 0.00 0.00 0.00 0.00 0.01 0.00 0.00 0.00 0.02 0.05 0.11 0.02 0.00 0.00 0.00 0.00 0.00
0.00 0.00 0.00 0.00 0.00 0.03 0.03 0.19 0.10 0.08 0.00 0.00 0.00 0.01 0.01 0.01 0.01 0.02 0.06 0.08 0.05 0.05 0.04 0.05 0.02 0.00 0.00 0.01 0.00 0.00 0.00 0.00 0.01 0.01 0.00 0.01 0.07 0.08 0.01 0.00 0.00 0.00 0.00
0.00 0.00 0.00 0.00 0.01 0.01 0.01 0.07 0.20 0.32 0.07 0.00 0.01 0.01 0.01 0.00 0.04 0.04 0.02 0.03 0.05 0.11 0.13 0.00 0.00 0.01 0.00 0.01 0.00 0.00 0.02 0.01 0.00 0.00 0.00 0.00 0.03 0.07 0.11 0.04 0.00 0.01 0.05
0.00 0.00 0.00 0.00 0.00 0.01 0.05 0.15 0.24 0.61 0.12 0.02 0.00 0.00 0.03 0.04 0.04 0.12 0.11 0.07 0.08 0.15 0.06 0.11 0.07 0.05 0.03 0.01 0.01 0.01 0.01 0.03 0.03 0.07 0.00 0.00 0.01 0.09 0.20 0.27 0.20 0.14 0.06
0.00 0.00 0.00 0.00 0.00 0.01 0.06 0.13 0.21 0.37 0.28 0.02 0.00 0.01 0.02 0.06 0.14 0.09 0.13 0.14 0.04 0.08 0.09 0.12 0.08 0.07 0.05 0.04 0.03 0.04 0.04 0.07 0.06 0.19 0.18 0.06 0.02 0.09 0.19 0.26 0.34 0.33 0.28
0.00 0.00 0.00 0.00 0.00 0.00 0.02 0.05 0.10 0.12 0.07 0.03 0.00 0.02 0.04 0.04 0.17 0.08 0.06 0.06 0.06 0.15 0.09 0.11 0.08 0.09 0.20 0.14 0.01 0.00 0.04 0.10 0.16 0.20 0.26 0.17 0.16 0.05 0.20 0.23 0.27 0.36 0.44
0.00 0.00 0.00 0.00 0.00 0.00 0.01 0.08 0.09 0.03 0.12 0.11 0.02 0.01 0.01 0.01 0.05 0.02 0.06 0.04 0.06 0.05 0.09 0.12 0.19 0.25 0.09 0.08 0.02 0.04 0.08 0.16 0.28 0.21 0.17 0.21 0.31 0.14 0.11 0.17 0.37 0.57 0.34
0.00 0.00 0.00 0.00 0.00 0.00 0.02 0.07 0.13 0.00 0.04 0.04 0.02 0.02 0.01 0.01 0.07 0.01 0.06 0.11 0.12 0.08 0.18 0.40 0.38 0.43 0.19 0.11 0.08 0.12 0.22 0.21 0.26 0.41 0.30 0.44 0.60 0.27 0.25 0.24 0.84 0.58 0.50
0.05 0.06 0.01 0.00 0.00 0.00 0.01 0.03 0.04 0.01 0.07 0.10 0.10 0.13 0.11 0.10 0.11 0.19 0.18 0.23 0.11 0.15 0.11 0.19 0.31 0.22 0.25 0.23 0.26 0.08 0.09 0.30 0.30 0.32 0.24 0.36 0.44 0.49 0.54 0.63 0.54 0.71 0.43
0.02 0.06 0.03 0.00 0.01 0.00 0.02 0.03 0.04 0.05 0.09 0.08 0.29 0.26 0.16 0.15 0.27 0.56 0.58 0.29 0.19 0.29 0.36 0.15 0.18 0.17 0.09 0.15 0.26 0.16 0.19 0.34 0.46 0.36 0.23 1.18 1.03 1.72 1.34 0.89 0.61 0.80 0.75
0.02 0.03 0.01 0.00 0.02 0.00 0.02 0.05 0.05 0.10 0.13 0.18 0.18 0.53 0.88 0.53 0.14 0.28 0.20 0.19 0.15 0.35 0.23 0.18 0.24 0.38 0.09 0.06 0.13 0.16 0.07 0.14 0.13 0.38 0.63 0.60 0.30 0.31 0.77 2.23 1.53 1.38 1.47
0.01 0.05 0.02 0.02 0.03 0.01 0.01 0.02 0.03 0.01 0.04 0.04 0.09 0.36 0.19 0.21 0.13 0.06 0.14 0.12 0.17 0.21 0.26 0.22 0.47 0.39 0.30 0.18 0.24 0.13 0.10 0.10 0.09 0.12 0.55 0.52 0.10 0.24 0.22 0.11 0.17 0.12 0.37
0.00 0.02 0.01 0.06 0.08 0.03 0.03 0.06 0.06 0.02 0.02 0.11 0.15 0.19 0.17 0.28 0.21 0.12 0.05 0.01 0.01 0.10 0.17 0.26 0.36 0.30 0.33 0.16 0.11 0.19 0.17 0.15 0.10 0.05 0.11 0.01 0.03 0.17 0.27 0.53 0.21 0.35 0.18
0.01 0.00 0.00 0.11 0.10 0.07 0.06 0.04 0.06 0.04 0.04 0.14 0.14 0.14 0.16 0.18 0.08 0.01 0.00 0.00 0.00 0.03 0.04 0.07 0.11 0.12 0.08 0.07 0.02 0.04 0.04 0.07 0.06 0.06 0.04 0.01 0.01 0.00 0.00 0.01 0.02 0.05 0.10

GFSSE_prec_precacc12_285.txt.gz
Total_Precipitation_Accumulation
0.02 0.01 0.10 0.10 0.09 0.07 0.09 0.05 0.08 0.09 0.07 0.03 0.08 0.21 0.35 0.38 0.50 0.47 0.54 0.46 0.66 0.71 0.13 0.06 0.29 0.05 0.03 0.32 0.61 0.11 0.06 0.04 0.00 0.00 0.00 0.02 0.03 0.01 0.00 0.01 0.05 0.09 0.17
0.00 0.01 0.10 0.07 0.04 0.03 0.04 0.04 0.03 0.07 0.09 0.08 0.10 0.20 0.41 0.46 0.83 0.62 0.60 0.46 0.81 0.67 0.15 0.20 0.19 0.08 0.23 0.61 0.24 0.06 0.03 0.00 0.00 0.00 0.01 0.01 0.01 0.00 0.00 0.00 0.00 0.00 0.01
0.00 0.01 0.03 0.06 0.01 0.02 0.03 0.03 0.04 0.12 0.12 0.15 0.17 0.24 0.34 1.56 2.41 0.64 0.56 0.41 0.54 0.34 0.31 0.37 0.27 0.25 0.47 0.35 0.05 0.16 0.02 0.12 0.06 0.00 0.00 0.00 0.00 0.00 0.00 0.00 0.00 0.00 0.00
0.00 0.00 0.00 0.01 0.03 0.03 0.03 0.02 0.04 0.12 0.09 0.12 0.14 0.21 0.40 1.54 1.30 0.63 0.46 0.28 0.41 0.22 0.22 0.36 0.31 0.21 0.10 0.01 0.02 0.02 0.04 0.05 0.01 0.00 0.00 0.00 0.00 0.00 0.00 0.00 0.00 0.00 0.00
0.00 0.00 0.00 0.01 0.03 0.06 0.04 0.02 0.02 0.08 0.05 0.11 0.17 0.42 0.54 0.62 0.44 0.19 0.13 0.18 0.28 0.14 0.32 0.44 0.16 0.06 0.08 0.04 0.03 0.04 0.01 0.00 0.00 0.00 0.00 0.00 0.00 0.00 0.00 0.00 0.00 0.00 0.00
0.00 0.00 0.01 0.00 0.02 0.06 0.05 0.03 0.03 0.05 0.02 0.06 0.10 0.09 0.17 0.11 0.05 0.05 0.04 0.04 0.04 0.12 0.24 0.07 0.01 0.02 0.02 0.03 0.05 0.04 0.00 0.00 0.00 0.00 0.00 0.00 0.00 0.00 0.00 0.00 0.00 0.00 0.00
0.00 0.00 0.00 0.02 0.03 0.09 0.11 0.06 0.03 0.03 0.01 0.03 0.10 0.10 0.16 0.11 0.04 0.06 0.06 0.07 0.02 0.05 0.07 0.03 0.00 0.01 0.03 0.02 0.00 0.00 0.00 0.00 0.00 0.00 0.00 0.00 0.00 0.00 0.00 0.00 0.00 0.00 0.00
0.00 0.00 0.01 0.03 0.03 0.04 0.04 0.03 0.01 0.02 0.03 0.04 0.06 0.13 0.18 0.22 0.16 0.14 0.11 0.10 0.04 0.03 0.02 0.01 0.01 0.02 0.00 0.00 0.00 0.00 0.01 0.01 0.00 0.00 0.00 0.00 0.00 0.00 0.00 0.00 0.00 0.00 0.00
0.00 0.00 0.00 0.02 0.03 0.06 0.04 0.04 0.01 0.00 0.01 0.03 0.05 0.07 0.05 0.07 0.08 0.07 0.07 0.08 0.04 0.00 0.00 0.00 0.00 0.00 0.00 0.00 0.00 0.01 0.03 0.01 0.00 0.00 0.00 0.00 0.00 0.00 0.00 0.00 0.00 0.00 0.00
0.00 0.00 0.00 0.00 0.00 0.00 0.01 0.02 0.01 0.00 0.02 0.07 0.07 0.07 0.05 0.03 0.03 0.03 0.07 0.07 0.02 0.00 0.00 0.00 0.00 0.00 0.00 0.00 0.00 0.00 0.01 0.00 0.00 0.00 0.00 0.00 0.00 0.00 0.00 0.00 0.00 0.00 0.00
0.00 0.00 0.00 0.00 0.00 0.00 0.00 0.01 0.00 0.02 0.04 0.05 0.07 0.05 0.03 0.01 0.04 0.04 0.03 0.00 0.00 0.00 0.00 0.00 0.00 0.00 0.00 0.00 0.01 0.01 0.01 0.00 0.01 0.00 0.00 0.00 0.00 0.00 0.00 0.00 0.00 0.00 0.00
0.00 0.00 0.00 0.00 0.00 0.00 0.00 0.00 0.00 0.01 0.02 0.01 0.03 0.04 0.02 0.04 0.01 0.01 0.01 0.01 0.01 0.00 0.00 0.00 0.00 0.00 0.00 0.00 0.00 0.00 0.03 0.02 0.05 0.02 0.00 0.03 0.04 0.00 0.00 0.00 0.00 0.00 0.00
0.00 0.00 0.00 0.00 0.00 0.00 0.01 0.01 0.00 0.00 0.00 0.01 0.01 0.02 0.01 0.00 0.00 0.01 0.02 0.03 0.02 0.01 0.01 0.01 0.00 0.00 0.00 0.00 0.00 0.00 0.00 0.00 0.00 0.00 0.00 0.04 0.11 0.02 0.00 0.00 0.00 0.00 0.00
0.00 0.00 0.00 0.00 0.00 0.01 0.02 0.03 0.00 0.00 0.00 0.00 0.00 0.00 0.00 0.00 0.00 0.01 0.06 0.07 0.04 0.03 0.01 0.02 0.02 0.00 0.00 0.00 0.00 0.00 0.00 0.00 0.01 0.01 0.00 0.00 0.07 0.08 0.01 0.00 0.00 0.00 0.00
0.00 0.00 0.00 0.00 0.01 0.01 0.01 0.02 0.05 0.01 0.00 0.00 0.01 0.01 0.01 0.00 0.00 0.00 0.01 0.03 0.01 0.01 0.01 0.00 0.00 0.01 0.00 0.01 0.00 0.00 0.00 0.00 0.00 0.00 0.00 0.00 0.03 0.07 0.12 0.11 0.05 0.03 0.00
0.00 0.00 0.00 0.00 0.00 0.01 0.09 0.01 0.04 0.01 0.00 0.00 0.00 0.00 0.03 0.03 0.02 0.08 0.06 0.03 0.02 0.02 0.03 0.07 0.06 0.03 0.02 0.01 0.01 0.02 0.00 0.00 0.02 0.06 0.01 0.00 0.02 0.09 0.17 0.25 0.36 0.32 0.14
0.00 0.00 0.00 0.00 0.00 0.01 0.08 0.02 0.01 0.00 0.01 0.00 0.00 0.01 0.01 0.03 0.03 0.06 0.11 0.10 0.04 0.05 0.03 0.11 0.08 0.06 0.02 0.04 0.02 0.03 0.05 0.07 0.06 0.15 0.15 0.06 0.02 0.10 0.22 0.22 0.34 0.41 0.42
0.00 0.00 0.00 0.00 0.00 0.00 0.02 0.05 0.02 0.00 0.04 0.01 0.00 0.02 0.02 0.03 0.09 0.03 0.04 0.05 0.05 0.14 0.11 0.15 0.08 0.03 0.10 0.10 0.02 0.01 0.04 0.09 0.16 0.19 0.25 0.18 0.15 0.04 0.23 0.22 0.28 0.34 0.42
0.00 0.00 0.00 0.00 0.00 0.00 0.01 0.03 0.02 0.02 0.09 0.09 0.02 0.00 0.00 0.02 0.05 0.02 0.03 0.03 0.10 0.16 0.11 0.13 0.15 0.27 0.12 0.11 0.03 0.03 0.05 0.12 0.24 0.19 0.15 0.21 0.45 0.11 0.03 0.13 0.27 0.51 0.30
0.00 0.00 0.00 0.00 0.00 0.00 0.01 0.00 0.01 0.00 0.03 0.04 0.02 0.01 0.01 0.00 0.06 0.04 0.09 0.22 0.25 0.16 0.21 0.41 0.33 0.51 0.16 0.05 0.06 0.03 0.12 0.18 0.19 0.33 0.19 0.22 0.35 0.12 0.07 0.08 0.29 0.43 0.52
0.03 0.04 0.01 0.00 0.00 0.00 0.01 0.01 0.00 0.00 0.03 0.09 0.08 0.12 0.12 0.10 0.11 0.32 0.39 0.36 0.13 0.18 0.09 0.09 0.32 0.44 0.43 0.23 0.34 0.07 0.07 0.14 0.16 0.21 0.10 0.13 0.13 0.12 0.08 0.07 0.09 0.21 0.30
0.01 0.03 0.02 0.00 0.00 0.00 0.02 0.02 0.03 0.05 0.07 0.06 0.22 0.06 0.06 0.10 0.29 0.65 0.78 0.29 0.33 0.43 0.42 0.19 0.28 0.25 0.15 0.12 0.24 0.08 0.05 0.09 0.15 0.01 0.00 0.00 0.00 0.02 0.02 0.02 0.01 0.19 0.20
0.02 0.03 0.01 0.01 0.03 0.00 0.01 0.02 0.04 0.11 0.09 0.10 0.06 0.12 0.05 0.04 0.11 0.11 0.24 0.15 0.24 0.27 0.27 0.23 0.29 0.22 0.16 0.03 0.03 0.13 0.04 0.01 0.00 0.01 0.00 0.00 0.01 0.02 0.02 0.07 0.01 0.00 0.09
0.01 0.05 0.02 0.02 0.04 0.01 0.00 0.00 0.02 0.06 0.22 0.13 0.07 0.09 0.10 0.11 0.09 0.11 0.16 0.20 0.19 0.15 0.11 0.09 0.18 0.17 0.17 0.15 0.12 0.10 0.09 0.09 0.08 0.00 0.00 0.00 0.00 0.00 0.00 0.00 0.00 0.00 0.03
0.00 0.03 0.02 0.08 0.09 0.02 0.02 0.01 0.02 0.02 0.13 0.14 0.14 0.10 0.16 0.34 0.15 0.12 0.13 0.07 0.03 0.01 0.00 0.02 0.13 0.06 0.13 0.07 0.08 0.19 0.24 0.11 0.04 0.02 0.05 0.00 0.00 0.00 0.00 0.00 0.00 0.01 0.06
0.01 0.01 0.01 0.16 0.14 0.03 0.02 0.04 0.04 0.05 0.04 0.04 0.06 0.12 0.09 0.15 0.03 0.01 0.00 0.00 0.00 0.00 0.00 0.00 0.00 0.02 0.02 0.09 0.01 0.01 0.02 0.00 0.01 0.03 0.03 0.01 0.00 0.00 0.00 0.00 0.00 0.03 0.07

GFSSE_prec_precacc12_288.txt.gz
Total_Precipitation_Accumulation
0.00 0.01 0.10 0.10 0.09 0.09 0.10 0.08 0.11 0.08 0.04 0.04 0.22 0.46 0.51 0.56 0.60 0.46 0.52 0.35 0.09 0.08 0.01 0.05 0.31 0.05 0.06 0.37 0.72 0.11 0.00 0.00 0.00 0.00 0.01 0.03 0.04 0.01 0.01 0.03 0.09 0.10 0.17
0.00 0.02 0.08 0.05 0.04 0.04 0.07 0.07 0.02 0.03 0.10 0.17 0.17 0.41 0.56 0.66 0.99 0.69 0.62 0.34 0.18 0.15 0.05 0.19 0.16 0.01 0.13 0.55 0.25 0.03 0.00 0.00 0.00 0.01 0.01 0.01 0.01 0.00 0.00 0.02 0.02 0.01 0.04
0.00 0.01 0.02 0.06 0.02 0.05 0.08 0.05 0.07 0.21 0.27 0.24 0.22 0.42 0.61 1.80 2.57 0.74 0.58 0.37 0.38 0.18 0.27 0.29 0.13 0.18 0.43 0.35 0.01 0.03 0.02 0.11 0.04 0.00 0.00 0.00 0.00 0.01 0.00 0.00 0.00 0.00 0.02
0.00 0.00 0.00 0.04 0.04 0.07 0.08 0.03 0.08 0.18 0.13 0.15 0.30 0.45 0.62 1.79 2.02 0.74 0.46 0.28 0.39 0.19 0.20 0.37 0.33 0.24 0.13 0.02 0.04 0.02 0.04 0.05 0.00 0.00 0.00 0.00 0.00 0.00 0.00 0.00 0.00 0.00 0.00
0.00 0.00 0.00 0.01 0.04 0.08 0.11 0.07 0.07 0.13 0.10 0.24 0.59 0.81 0.74 1.15 0.95 0.38 0.15 0.18 0.28 0.14 0.33 0.59 0.27 0.08 0.05 0.03 0.03 0.03 0.00 0.00 0.00 0.00 0.00 0.00 0.00 0.00 0.00 0.00 0.01 0.00 0.00
0.00 0.00 0.01 0.00 0.03 0.08 0.14 0.08 0.03 0.07 0.06 0.09 0.26 0.42 0.43 0.55 0.25 0.15 0.08 0.05 0.08 0.20 0.36 0.17 0.02 0.04 0.05 0.04 0.05 0.02 0.00 0.00 0.00 0.00 0.00 0.00 0.00 0.00 0.00 0.00 0.00 0.00 0.01
0.00 0.00 0.00 0.04 0.06 0.09 0.14 0.09 0.05 0.05 0.08 0.07 0.13 0.14 0.20 0.12 0.11 0.11 0.16 0.11 0.08 0.15 0.16 0.07 0.01 0.04 0.06 0.03 0.01 0.00 0.00 0.00 0.00 0.00 0.00 0.00 0.00 0.00 0.00 0.00 0.00 0.00 0.00
0.00 0.00 0.01 0.04 0.05 0.10 0.07 0.07 0.09 0.11 0.10 0.11 0.09 0.16 0.20 0.28 0.21 0.18 0.16 0.13 0.06 0.06 0.05 0.02 0.02 0.02 0.00 0.00 0.00 0.00 0.00 0.00 0.00 0.00 0.00 0.00 0.00 0.00 0.00 0.00 0.00 0.00 0.00
0.00 0.00 0.00 0.02 0.04 0.07 0.05 0.07 0.05 0.07 0.05 0.06 0.08 0.11 0.11 0.16 0.18 0.15 0.11 0.11 0.10 0.02 0.02 0.03 0.03 0.00 0.00 0.00 0.00 0.00 0.00 0.00 0.00 0.00 0.00 0.00 0.00 0.00 0.00 0.00 0.00 0.00 0.00
0.00 0.00 0.00 0.00 0.02 0.00 0.01 0.02 0.01 0.03 0.04 0.08 0.09 0.11 0.09 0.05 0.05 0.04 0.09 0.08 0.07 0.01 0.00 0.00 0.00 0.00 0.00 0.00 0.00 0.00 0.00 0.00 0.00 0.00 0.00 0.00 0.00 0.00 0.00 0.00 0.00 0.00 0.01
0.00 0.00 0.00 0.00 0.00 0.00 0.01 0.01 0.00 0.03 0.05 0.07 0.07 0.06 0.06 0.05 0.06 0.05 0.05 0.02 0.00 0.00 0.00 0.00 0.00 0.00 0.00 0.00 0.01 0.01 0.01 0.00 0.00 0.00 0.00 0.00 0.00 0.00 0.00 0.00 0.00 0.00 0.00
0.00 0.00 0.00 0.00 0.00 0.00 0.00 0.00 0.00 0.01 0.01 0.00 0.01 0.03 0.01 0.02 0.01 0.01 0.02 0.02 0.01 0.00 0.00 0.00 0.00 0.00 0.00 0.00 0.00 0.00 0.02 0.01 0.04 0.02 0.00 0.01 0.02 0.00 0.00 0.00 0.00 0.00 0.00
0.00 0.00 0.00 0.00 0.00 0.00 0.00 0.00 0.00 0.00 0.00 0.00 0.01 0.02 0.01 0.00 0.00 0.00 0.00 0.01 0.01 0.01 0.00 0.00 0.00 0.00 0.00 0.00 0.00 0.00 0.00 0.00 0.00 0.00 0.00 0.01 0.05 0.01 0.00 0.00 0.00 0.00 0.00
0.00 0.00 0.00 0.00 0.00 0.00 0.00 0.00 0.00 0.00 0.00 0.00 0.00 0.00 0.00 0.00 0.00 0.00 0.00 0.00 0.00 0.00 0.00 0.00 0.00 0.00 0.00 0.00 0.00 0.00 0.00 0.00 0.01 0.01 0.00 0.00 0.03 0.05 0.01 0.00 0.00 0.00 0.00
0.00 0.00 0.00 0.00 0.00 0.00 0.00 0.01 0.04 0.01 0.00 0.00 0.01 0.01 0.00 0.00 0.01 0.01 0.00 0.00 0.00 0.00 0.00 0.00 0.00 0.00 0.00 0.00 0.00 0.00 0.00 0.00 0.00 0.00 0.00 0.00 0.00 0.04 0.08 0.10 0.06 0.12 0.01
0.00 0.00 0.00 0.00 0.00 0.01 0.05 0.00 0.04 0.01 0.00 0.00 0.00 0.00 0.03 0.03 0.04 0.11 0.08 0.02 0.01 0.00 0.00 0.02 0.02 0.03 0.01 0.01 0.01 0.02 0.00 0.00 0.01 0.05 0.01 0.00 0.01 0.01 0.07 0.17 0.37 0.37 0.17
0.00 0.00 0.00 0.00 0.00 0.01 0.04 0.00 0.01 0.00 0.00 0.02 0.02 0.02 0.01 0.03 0.05 0.09 0.13 0.11 0.06 0.04 0.02 0.02 0.03 0.04 0.02 0.04 0.02 0.03 0.05 0.06 0.06 0.07 0.05 0.01 0.02 0.05 0.08 0.12 0.29 0.38 0.53
0.00 0.00 0.00 0.00 0.00 0.00 0.00 0.02 0.00 0.00 0.02 0.03 0.00 0.01 0.04 0.08 0.07 0.12 0.16 0.13 0.18 0.22 0.15 0.07 0.03 0.02 0.04 0.07 0.02 0.00 0.01 0.02 0.11 0.09 0.04 0.06 0.04 0.01 0.09 0.16 0.22 0.22 0.31
0.00 0.00 0.00 0.00 0.00 0.00 0.00 0.00 0.00 0.00 0.01 0.04 0.01 0.00 0.00 0.06 0.10 0.09 0.03 0.02 0.15 0.19 0.19 0.11 0.09 0.24 0.19 0.12 0.02 0.01 0.02 0.04 0.07 0.03 0.02 0.11 0.32 0.04 0.00 0.02 0.10 0.35 0.15
0.00 0.00 0.00 0.00 0.00 0.00 0.00 0.00 0.00 0.00 0.00 0.02 0.01 0.00 0.01 0.02 0.07 0.07 0.09 0.27 0.26 0.23 0.30 0.43 0.34 0.56 0.17 0.11 0.00 0.02 0.07 0.07 0.05 0.08 0.02 0.02 0.09 0.05 0.03 0.02 0.07 0.14 0.14
0.00 0.00 0.00 0.00 0.00 0.00 0.00 0.00 0.00 0.00 0.00 0.00 0.03 0.07 0.09 0.10 0.10 0.28 0.40 0.31 0.16 0.25 0.12 0.11 0.24 0.47 0.34 0.07 0.15 0.03 0.04 0.10 0.11 0.11 0.03 0.01 0.01 0.09 0.07 0.15 0.06 0.06 0.06
0.00 0.00 0.00 0.00 0.00 0.00 0.01 0.00 0.00 0.00 0.00 0.01 0.13 0.03 0.06 0.10 0.26 0.58 0.65 0.28 0.27 0.32 0.28 0.22 0.30 0.26 0.18 0.05 0.08 0.03 0.05 0.13 0.11 0.01 0.00 0.00 0.00 0.00 0.01 0.01 0.04 0.01 0.00
0.02 0.02 0.00 0.01 0.01 0.00 0.01 0.01 0.00 0.02 0.02 0.04 0.05 0.12 0.05 0.04 0.11 0.09 0.18 0.10 0.21 0.21 0.23 0.21 0.20 0.20 0.20 0.05 0.04 0.16 0.13 0.13 0.01 0.01 0.00 0.00 0.00 0.00 0.00 0.01 0.00 0.00 0.00
0.01 0.05 0.02 0.02 0.01 0.00 0.00 0.00 0.01 0.06 0.23 0.14 0.08 0.08 0.10 0.11 0.08 0.10 0.13 0.15 0.17 0.11 0.11 0.10 0.08 0.15 0.18 0.15 0.04 0.08 0.19 0.15 0.15 0.02 0.00 0.00 0.00 0.00 0.00 0.00 0.00 0.00 0.00
0.00 0.03 0.02 0.08 0.05 0.00 0.01 0.01 0.00 0.07 0.16 0.09 0.09 0.08 0.16 0.34 0.12 0.11 0.18 0.10 0.06 0.04 0.02 0.01 0.01 0.02 0.02 0.04 0.07 0.23 0.27 0.21 0.11 0.01 0.05 0.00 0.00 0.00 0.00 0.00 0.00 0.00 0.00
0.01 0.01 0.01 0.15 0.14 0.03 0.01 0.02 0.15 0.17 0.11 0.09 0.09 0.12 0.08 0.15 0.03 0.01 0.00 0.00 0.01 0.00 0.00 0.00 0.00 0.01 0.03 0.09 0.04 0.06 0.07 0.06 0.05 0.00 0.03 0.01 0.00 0.00 0.00 0.00 0.00 0.00 0.00

GFSSE_prec_precacc12_291.txt.gz
Total_Precipitation_Accumulation
0.00 0.00 0.07 0.13 0.14 0.14 0.15 0.13 0.10 0.06 0.03 0.07 0.43 0.57 0.64 0.59 0.47 0.22 0.32 0.26 0.03 0.00 0.00 0.05 0.36 0.16 0.22 0.40 0.62 0.10 0.00 0.00 0.00 0.00 0.01 0.04 0.04 0.00 0.01 0.04 0.16 0.08 0.16
0.00 0.00 0.07 0.11 0.11 0.09 0.12 0.07 0.01 0.02 0.12 0.19 0.35 0.59 0.72 0.71 0.92 0.54 0.50 0.15 0.04 0.02 0.03 0.16 0.25 0.19 0.15 0.43 0.21 0.00 0.01 0.00 0.01 0.01 0.01 0.01 0.00 0.00 0.00 0.03 0.07 0.01 0.04
0.00 0.00 0.01 0.06 0.06 0.10 0.12 0.05 0.10 0.23 0.29 0.27 0.39 0.66 0.83 1.91 2.56 0.65 0.44 0.18 0.08 0.09 0.16 0.21 0.22 0.16 0.30 0.33 0.00 0.01 0.02 0.04 0.01 0.00 0.00 0.00 0.00 0.01 0.00 0.00 0.00 0.00 0.02
0.00 0.00 0.00 0.06 0.07 0.12 0.13 0.07 0.14 0.15 0.12 0.18 0.46 0.71 1.08 1.94 2.09 0.73 0.38 0.19 0.19 0.13 0.16 0.33 0.25 0.15 0.10 0.03 0.05 0.04 0.02 0.00 0.00 0.00 0.00 0.00 0.00 0.00 0.00 0.00 0.00 0.00 0.04
0.00 0.00 0.00 0.02 0.06 0.09 0.13 0.09 0.07 0.10 0.15 0.54 1.00 1.09 1.33 1.31 1.10 0.42 0.11 0.14 0.24 0.13 0.39 0.69 0.27 0.08 0.06 0.04 0.01 0.00 0.00 0.00 0.00 0.00 0.00 0.00 0.00 0.00 0.00 0.01 0.04 0.04 0.03
0.00 0.00 0.01 0.02 0.06 0.09 0.16 0.09 0.03 0.06 0.06 0.31 0.61 0.65 0.59 0.67 0.33 0.16 0.06 0.04 0.10 0.29 0.49 0.24 0.02 0.04 0.05 0.01 0.01 0.01 0.00 0.00 0.00 0.00 0.00 0.00 0.00 0.00 0.00 0.00 0.01 0.01 0.01
0.00 0.00 0.00 0.06 0.08 0.10 0.16 0.09 0.06 0.06 0.09 0.07 0.15 0.19 0.26 0.21 0.20 0.14 0.27 0.17 0.23 0.29 0.22 0.08 0.03 0.07 0.09 0.05 0.01 0.00 0.00 0.00 0.00 0.00 0.00 0.00 0.00 0.00 0.00 0.00 0.00 0.00 0.00
0.00 0.00 0.01 0.04 0.07 0.12 0.08 0.08 0.09 0.12 0.12 0.15 0.11 0.19 0.21 0.31 0.24 0.22 0.27 0.20 0.16 0.16 0.09 0.02 0.05 0.03 0.00 0.00 0.00 0.00 0.00 0.00 0.00 0.00 0.00 0.00 0.00 0.00 0.00 0.00 0.00 0.00 0.00
0.00 0.00 0.00 0.02 0.03 0.08 0.06 0.08 0.08 0.10 0.09 0.08 0.11 0.18 0.15 0.22 0.24 0.24 0.15 0.14 0.12 0.06 0.05 0.05 0.03 0.00 0.00 0.00 0.00 0.00 0.00 0.00 0.00 0.00 0.00 0.00 0.00 0.00 0.00 0.00 0.00 0.00 0.00
0.00 0.00 0.00 0.00 0.02 0.01 0.01 0.02 0.02 0.06 0.06 0.13 0.16 0.17 0.15 0.12 0.11 0.11 0.11 0.09 0.07 0.03 0.01 0.00 0.00 0.00 0.00 0.00 0.00 0.00 0.00 0.00 0.00 0.00 0.00 0.00 0.00 0.00 0.00 0.00 0.00 0.00 0.01
0.00 0.00 0.00 0.00 0.00 0.00 0.01 0.01 0.01 0.04 0.07 0.09 0.10 0.12 0.14 0.06 0.07 0.11 0.07 0.02 0.00 0.00 0.00 0.00 0.00 0.00 0.00 0.00 0.00 0.00 0.00 0.08 0.00 0.00 0.00 0.00 0.00 0.00 0.00 0.00 0.00 0.00 0.00
0.00 0.00 0.00 0.00 0.00 0.00 0.00 0.04 0.03 0.01 0.04 0.03 0.01 0.04 0.02 0.02 0.01 0.01 0.02 0.02 0.01 0.00 0.00 0.00 0.00 0.00 0.00 0.00 0.00 0.00 0.00 0.00 0.01 0.00 0.00 0.00 0.00 0.00 0.00 0.00 0.00 0.00 0.00
0.00 0.00 0.00 0.00 0.00 0.00 0.00 0.00 0.00 0.00 0.00 0.00 0.00 0.00 0.00 0.00 0.00 0.00 0.00 0.02 0.01 0.01 0.00 0.00 0.00 0.00 0.00 0.00 0.00 0.00 0.00 0.00 0.00 0.00 0.01 0.00 0.00 0.00 0.00 0.00 0.00 0.00 0.00
0.00 0.00 0.00 0.00 0.00 0.00 0.00 0.00 0.00 0.00 0.00 0.00 0.00 0.00 0.00 0.00 0.00 0.00 0.00 0.00 0.00 0.00 0.00 0.00 0.00 0.00 0.00 0.00 0.00 0.00 0.00 0.00 0.00 0.00 0.00 0.01 0.00 0.00 0.00 0.00 0.00 0.00 0.00
0.00 0.00 0.00 0.00 0.00 0.00 0.00 0.00 0.00 0.00 0.00 0.00 0.00 0.00 0.00 0.00 0.01 0.01 0.00 0.00 0.00 0.00 0.00 0.00 0.00 0.00 0.00 0.00 0.00 0.00 0.00 0.00 0.00 0.00 0.00 0.00 0.00 0.00 0.01 0.07 0.06 0.13 0.01
0.00 0.00 0.00 0.00 0.00 0.00 0.04 0.00 0.00 0.00 0.00 0.00 0.00 0.00 0.00 0.01 0.03 0.05 0.05 0.01 0.00 0.00 0.00 0.00 0.00 0.00 0.00 0.00 0.00 0.01 0.00 0.00 0.00 0.00 0.01 0.00 0.01 0.00 0.00 0.05 0.30 0.30 0.25
0.00 0.00 0.00 0.00 0.00 0.00 0.02 0.00 0.00 0.00 0.00 0.02 0.02 0.02 0.01 0.04 0.07 0.08 0.10 0.09 0.06 0.03 0.01 0.01 0.01 0.00 0.00 0.01 0.00 0.02 0.02 0.01 0.00 0.00 0.01 0.00 0.01 0.02 0.04 0.07 0.22 0.29 0.49
0.00 0.00 0.00 0.00 0.00 0.00 0.00 0.01 0.00 0.00 0.00 0.02 0.00 0.00 0.03 0.08 0.05 0.11 0.15 0.13 0.19 0.16 0.13 0.06 0.04 0.01 0.03 0.04 0.01 0.01 0.01 0.01 0.00 0.00 0.00 0.03 0.02 0.01 0.06 0.13 0.19 0.21 0.22
0.00 0.00 0.00 0.00 0.00 0.00 0.00 0.00 0.01 0.01 0.01 0.01 0.00 0.00 0.00 0.06 0.06 0.10 0.01 0.03 0.17 0.20 0.18 0.06 0.06 0.20 0.17 0.10 0.01 0.00 0.00 0.00 0.00 0.01 0.03 0.07 0.24 0.04 0.01 0.04 0.13 0.22 0.09
0.00 0.00 0.00 0.00 0.00 0.00 0.00 0.00 0.00 0.00 0.00 0.00 0.00 0.00 0.01 0.02 0.02 0.10 0.06 0.24 0.15 0.21 0.17 0.19 0.17 0.29 0.11 0.08 0.00 0.01 0.00 0.01 0.01 0.00 0.00 0.01 0.04 0.02 0.01 0.02 0.07 0.04 0.17
0.00 0.00 0.00 0.00 0.00 0.00 0.00 0.00 0.01 0.01 0.00 0.00 0.02 0.04 0.02 0.02 0.04 0.23 0.36 0.27 0.14 0.19 0.09 0.07 0.20 0.47 0.35 0.07 0.15 0.03 0.00 0.00 0.00 0.00 0.00 0.00 0.00 0.02 0.02 0.15 0.09 0.16 0.19
0.00 0.00 0.00 0.00 0.00 0.00 0.00 0.00 0.00 0.00 0.00 0.00 0.10 0.02 0.04 0.05 0.23 0.44 0.57 0.20 0.26 0.33 0.30 0.23 0.36 0.36 0.34 0.08 0.08 0.01 0.06 0.12 0.02 0.00 0.00 0.00 0.00 0.00 0.00 0.01 0.08 0.01 0.03
0.00 0.00 0.00 0.01 0.01 0.00 0.00 0.00 0.00 0.02 0.01 0.02 0.03 0.12 0.05 0.04 0.11 0.09 0.16 0.09 0.20 0.22 0.21 0.20 0.21 0.26 0.30 0.07 0.05 0.18 0.23 0.37 0.04 0.00 0.00 0.00 0.00 0.00 0.00 0.00 0.00 0.00 0.00
0.00 0.00 0.00 0.00 0.00 0.00 0.00 0.00 0.00 0.05 0.22 0.14 0.08 0.07 0.10 0.09 0.01 0.07 0.06 0.19 0.24 0.18 0.16 0.14 0.06 0.06 0.14 0.16 0.06 0.15 0.26 0.21 0.12 0.10 0.01 0.00 0.00 0.00 0.00 0.00 0.00 0.00 0.00
0.00 0.01 0.01 0.02 0.01 0.00 0.01 0.01 0.00 0.09 0.15 0.09 0.08 0.09 0.15 0.24 0.01 0.04 0.15 0.11 0.10 0.06 0.05 0.03 0.02 0.02 0.03 0.05 0.09 0.30 0.37 0.31 0.16 0.05 0.02 0.00 0.00 0.00 0.00 0.00 0.00 0.00 0.00
0.00 0.00 0.00 0.04 0.06 0.00 0.01 0.02 0.15 0.18 0.10 0.09 0.10 0.14 0.07 0.07 0.00 0.03 0.03 0.04 0.04 0.02 0.00 0.00 0.00 0.00 0.02 0.11 0.07 0.09 0.13 0.16 0.23 0.05 0.01 0.00 0.00 0.00 0.00 0.00 0.00 0.00 0.00